User: anonymous   Login
Location: Unspecified
(0.0000°N, 0.0000°E)
Time: 19:20:33
(UTC+00:00)
Language:

OPTUS D3 - Orbit

View from above orbital plane
View from above orbital plane
View from above satellite
View from above satellite

Ground track
Ground track

The orbit data is extracted from the following two-line orbital elements,

1 35756U 09044B   18110.85707032 -.00000161  00000-0  00000+0 0  9994
2 35756   0.0571  57.8359 0004214 322.9925 292.6032  1.00271265 31755
Epoch (UTC): 20 April 2018 20:34:10
Eccentricity: 0.0004214
inclination: 0.0571°
perigee height: 35768 km
apogee height: 35804 km
right ascension of ascending node: 57.8359°
argument of perigee: 322.9925°
revolutions per day: 1.00271265
mean anomaly at epoch: 292.6032°
orbit number at epoch: 3175

The dashed part of the orbit path shows where the satellite is in the earth's shadow,  

DLR